{"data":{"norad_id":32376,"intl_designator":"2007-059A","name":"COSMO-SKYMED 2","alt_names":[],"object_type":"PAYLOAD","status":"ACTIVE","operator":null,"country":"IT","launch_date":"2007-12-09","launch_site_code":"AFWTR","launch_vehicle":null,"mission":null,"orbit_class":"UNKNOWN","rcs_meters":5.5722,"size_class":null,"mass_kg":null,"dimensions":null,"purposes":["earth_obs"],"wikipedia_slug":null,"has_3d_model":false,"image_url":null,"decayed_at":null,"tle_current":{"epoch":"2026-09-19T22:42:04.159008Z","epoch_age_seconds":62255,"freshness":"FRESH","line1":"1 32376U 07059A   26262.94588147  .00000235  00000+0  36063-4 0  9997","line2":"2 32376  97.8915  85.1949 0001339  91.3803 268.7564 14.82152313 16047","mean_motion":14.82152313,"eccentricity":0.0001339,"inclination_deg":97.8915,"raan_deg":85.1949,"arg_perigee_deg":91.3803,"mean_anomaly_deg":268.7564,"bstar":3.6063e-5,"rev_number":1604,"period_min":97.156006664748,"perigee_km":621.6011608333,"apogee_km":623.47594174593,"semimajor_km":7000.6755512896,"source":"CELESTRAK","updated_at":"2026-09-20T09:00:33.887425Z"}}}